Hlavní strana
METAR-TAF:

METAR-TAF

Letiště :

Morganton, Severní Karolína, Spojené státy americké

zeměpisná šířka: 35-49-17N, zeměpisná délka: 081-36-39W, výška: 387 m

Aktuální stav počasí

Zpráva byla vytvořena před 32 minutami, v 16:55 UTC
Bezvětří
Teplota 9°C
Vlhkost vzduchu 49%
Tlak 1024 hPa
Viditelnost: 16.1 km
Jasno

METAR: KMRN 151655Z AUTO 00000KT 10SM CLR 09/M01 A3024 RMK AO2 T00871014

Čas: 12:27 (17:27 UTC)


TAF: chybějící

Stav a předpovědi počasí z více než 4 000 letišť (zprávy METAR a TAF).

Červené a žluté tečky na mapě představují dostupné meteorologické stanice.

Když kurzor umístíte na tečku, zobrazí se název stanice.

Pak kliknutím zobrazíte stav a předpověď počasí.

Chcete-li změnit mapu, kliknutím na zelené tlačítko se znaménkem +mapu přiblížíte, kliknutím na zelené tlačítko se znaménkem – mapu oddálíte a kliknutím na zelené šipky přejdete na sousední mapy.


METAR-TAF: